Location: Sternwarte ZA, Rosenfeld-Brittheim
(48.2889°N, 8.6789°E)
Time: 05:23:17
(UTC+02:00)

ISS - Pass Details

Date: 14 September 2018
Orbit: 403 x 409 km, 51.6° (Epoch: 24 September)

Event Time Altitude Azimuth Distance (km) Brightness Sun altitude
Exits shadow 05:48:43 17° 286° (WNW) 1,112 -2.1 -12.4°
Maximum altitude 05:51:05 64° 208° (SSW) 452 -3.8 -12.1°
Drops below altitude 10° 05:54:19 10° 126° (SE) 1,456 -0.5 -11.6°
Sets 05:56:24 0° 123° (ESE) 2,312 0.6 -11.2°
